[[{"header":{"parameterUnit":"m.s-1","parameterCategory":1,"la1":30.2991,"la2":30.254,"lo1":-89.0895,"lo2":-89.0444,"dy":0.0017,"dx":0.0017,"nx":28,"ny":28,"refTime":"2026-03-04T03:00:00:Z","depth":0,"parameterNumber":2,"parameterNumberName":"U-component_of_WINDS"},"data":[0,0,0,0,0,0,0,0,0,0,0,0,0,0,0,0,0,0,0,0,0,0,0,0,0,0,0,0,0,0,0,0,0,0,0,0,0,0,0,0,0,0,0,0,0,0,0,0,0,0,0,0,0,0,0,0,0,0,-3.9361,-3.9362,0,-3.9448,-3.9449,-3.945,-3.9394,-3.9391,-3.9389,-3.9386,-3.9476,-3.9481,-3.9485,0,0,0,0,0,0,0,0,0,0,0,0,0,-3.9152,-3.9156,-3.9361,-3.9362,-3.9364,-3.9448,-3.9449,-3.945,-3.9394,-3.9391,-3.9388,-3.9385,-3.9474,-3.948,-3.9486,0,0,0,0,0,0,0,0,0,0,0,0,0,-3.9241,-3.9157,-3.9361,-3.9346,-3.9345,-3.9447,-3.9449,-3.945,-3.9395,-3.9391,-3.9387,-3.9384,-3.9473,-3.948,-3.9487,-3.9609,0,0,-3.9509,-3.9512,0,0,0,0,0,0,0,0,-3.9236,-3.9249,-3.9347,-3.9347,-3.9347,-3.9406,-3.9408,-3.9504,-3.9396,-3.9376,-3.9386,-3.9382,-3.9456,-3.9464,-3.9489,-3.9613,-3.9617,-3.9509,-3.9514,-3.9517,-3.9519,0,0,0,0,0,0,0,-3.923,-3.9245,-3.9396,-3.9349,-3.9348,-3.9336,-3.9344,-3.9426,-3.9437,-3.9378,-3.9374,-3.9385,-3.9455,-3.9482,-3.9491,-3.9618,-3.9509,-3.9516,-3.952,-3.9523,-3.9849,-3.9853,0,0,0,0,0,0,-3.9224,-3.924,-3.9393,-3.9398,-3.9281,-3.9343,-3.9352,-3.9391,-3.9436,-3.9439,-3.9388,-3.9382,-3.9472,-3.9482,-3.9494,-3.964,-3.9517,-3.9523,-3.9528,-3.9845,-3.985,-3.9855,0,0,0,0,0,0,-3.922,-3.9239,-3.9389,-3.9318,-3.9336,-3.935,-3.9395,-3.9395,-3.9422,-3.9444,-3.9446,-3.9413,-3.9469,-3.9484,-3.9581,-3.9642,-3.9527,-3.9533,-3.984,-3.9846,-3.9852,-3.9933,0,0,0,0,0,0,-3.9214,-3.9237,-3.9283,-3.9319,-3.934,-3.9474,-3.9398,-3.9399,-3.9434,-3.9427,-3.9468,-3.9471,-3.9467,-3.9571,-3.9588,-3.965,-3.9539,-3.9834,-3.9843,-3.985,-3.9925,-3.9942,-3.9956,0,0,0,0,0,-3.9207,-3.9302,-3.9285,-3.9304,-3.9397,-3.9478,-3.949,-3.9483,-3.9439,-3.9486,-3.95,-3.947,-3.9634,-3.9581,-3.96,-3.9665,-3.983,-3.984,-3.985,-3.9918,-3.9938,-3.9956,0,0,0,0,0,0,-3.9272,-3.9306,-3.9288,-3.9398,-3.9435,-3.9468,-3.9526,-3.9505,-3.9555,-3.9546,-3.9537,-3.9547,-3.9649,-3.9667,-3.9608,-3.9787,-3.9725,-3.9739,-3.977,-3.979,-3.9805,-3.9797,-3.9545,0,0,0,0,0,-3.9299,-3.9361,-3.9388,-3.9482,-3.9502,-3.9511,-3.9546,-3.9538,-3.9577,-3.9592,-3.9614,-3.9653,-3.9714,-3.9753,-3.981,-3.9929,-3.9937,-3.9984,-3.9999,-4.0012,-4.0023,-4.0088,-4.0109,-3.9887,-3.9887,-3.9887,0,0,-3.9355,-3.9382,-3.9421,-3.9496,-3.9524,-3.9589,-3.9525,-3.9596,-3.9644,-3.9603,-3.9696,-3.9714,-3.9758,-3.9866,-3.9916,-3.9885,-4.0087,-4.0024,-4.0034,-4.0038,-4.0101,-4.0122,-4.014,-3.9894,-3.9892,-3.9891,0,0,-3.949,-3.9517,-3.9598,-3.9628,-3.9672,-3.9678,-3.9698,-3.9736,-3.9746,-3.9839,-3.981,-3.9869,-3.9973,-4.0005,-4.0035,-4.0188,-4.0162,-4.0207,-4.0286,-4.035,-4.0368,-4.0383,-4.0437,-4.0456,-4.0219,-4.0219,-4.0219,0,-3.9554,-3.9649,-3.9643,-3.9717,-3.9751,-3.9718,-3.9801,-3.9831,-3.9892,-3.9917,-3.9882,-4.0014,-4.0041,-4.0157,-4.0194,-4.022,-4.0243,-4.02,-4.0366,-4.0381,-4.0395,-4.0446,-4.0467,-4.0224,-4.0224,-4.0223,-4.0223,0,-3.9726,-3.9794,-3.9855,-3.9914,-3.9956,-4.0034,-4.004,-4.0084,-4.0074,-4.0084,-4.0181,-4.0213,-4.0276,-4.0304,-4.0295,-4.0421,-4.04,-4.0366,-4.0303,-4.0422,-4.0469,-4.0489,-4.0232,-4.023,-4.0228,-4.0227,0,0,-3.9899,-3.9957,-3.9979,-4.0006,-4.0055,-4.0107,-4.0186,-4.0248,-4.0285,-4.033,-4.0395,-4.0486,-4.0455,-4.049,-4.0485,-4.0541,-4.066,-4.05,-4.0501,-4.0528,-4.08,-4.0824,-4.0846,-4.0645,-4.0648,-4.0651,-4.0796,0,-4.0036,-4.0171,-4.0169,-4.0295,-4.0357,-4.033,-4.0398,-4.0436,-4.045,-4.0506,-4.0521,-4.0585,-4.054,-4.0561,-4.0616,-4.0634,-4.0714,-4.0624,-4.0705,-4.0708,-4.0692,-4.0871,-4.0896,-4.1031,-4.0815,-4.0818,-4.0821,0,-4.0212,-4.0262,-4.0394,-4.0435,-4.0462,-4.0523,-4.0581,-4.0635,-4.0679,-4.0685,-4.0725,-4.0712,-4.0793,-4.0731,-4.0843,-4.0782,-4.0816,-4.083,-4.0836,-4.084,-4.0769,-4.0879,-4.1074,-4.1093,-4.085,-4.0848,-4.0846,0,-4.0323,-4.0425,-4.0517,-4.0542,-4.0592,-4.0636,-4.0659,-4.0699,-4.0738,-4.0789,-4.0814,-4.0875,-4.0908,-4.0956,-4.0961,-4.0915,-4.1074,-4.1012,-4.1081,-4.1081,-4.1113,-4.111,-4.1313,-4.1139,-4.1139,-4.1139,-4.1138,0,-4.0474,-4.0555,-4.0568,-4.0624,-4.0716,-4.0715,-4.0806,-4.0825,-4.0862,-4.0923,-4.0904,-4.0962,-4.0966,-4.1026,-4.103,-4.1123,-4.1138,-4.1145,-4.1145,-4.1145,-4.1144,-4.1165,-4.1155,-4.1144,-4.1143,-4.1142,-4.1141,0,-4.0612,-4.0624,-4.0722,-4.0763,-4.0776,-4.0841,-4.0877,-4.0932,-4.0945,-4.1022,-4.1041,-4.1062,-4.1131,-4.1142,-4.1224,-4.1227,-4.1338,-4.1329,-4.1322,-4.132,-4.1388,-4.1381,-4.1609,-4.1639,-4.1448,-4.145,-4.1452,0,-4.0705,-4.0768,-4.0816,-4.0856,-4.0881,-4.0945,-4.0985,-4.0988,-4.103,-4.1087,-4.1135,-4.1203,-4.1257,-4.1371,-4.1394,-4.1457,-4.1448,-4.1525,-4.1457,-4.1456,-4.1448,-4.1443,-4.1449,-4.1536,-4.1538,-4.154,-4.1541,0,-4.087,-4.0874,-4.0931,-4.0992,-4.104,-4.1088,-4.1133,-4.1167,-4.1176,-4.1225,-4.1296,-4.1339,-4.1424,-4.1492,-4.1555,-4.1581,-4.1563,-4.1563,-4.1582,-4.1581,-4.1574,-4.1577,-4.1355,-4.1557,-4.1555,-4.1554,-4.1553,-4.1552,-4.0988,-4.1042,-4.1085,-4.115,-4.1186,-4.1229,-4.1283,-4.1304,-4.1363,-4.1432,-4.1432,-4.151,-4.1555,-4.1639,-4.1669,-4.1731,-4.1707,-4.1735,-4.1741,-4.1747,-4.1753,-4.1567,-4.1743,-4.1743,-4.1743,-4.1742,-4.1742,0,-4.115,-4.1177,-4.1238,-4.1302,-4.1354,-4.1335,-4.1385,-4.143,-4.1499,-4.1543,-4.1598,-4.1681,-4.1748,-4.1778,-4.1845,-4.1889,-4.1883,-4.1906,-4.1901,-4.1907,-4.1772,-4.1748,-4.191,-4.191,-4.191,-4.191,-4.191,-4.191,-4.124,-4.1331,-4.1341,-4.145,-4.1478,-4.1554,-4.1584,-4.1625,-4.166,-4.1754,-4.181,-4.1829,-4.1868,-4.1938,-4.1999,-4.2007,-4.2031,-4.2058,-4.2062,-4.1934,-4.1917,-4.19,-4.1878,-4.2064,-4.2064,-4.2191,-4.2192,-4.2193]},{"header":{"parameterUnit":"m.s-1","parameterCategory":1,"la1":30.2991,"la2":30.254,"lo1":-89.0895,"lo2":-89.0444,"dy":0.0017,"dx":0.0017,"nx":28,"ny":28,"refTime":"2026-03-04T03:00:00:Z","depth":0,"parameterNumber":3,"parameterNumberName":"V-component_of_WINDS"},"data":[0,0,0,0,0,0,0,0,0,0,0,0,0,0,0,0,0,0,0,0,0,0,0,0,0,0,0,0,0,0,0,0,0,0,0,0,0,0,0,0,0,0,0,0,0,0,0,0,0,0,0,0,0,0,0,0,0,0,0.686,0.6861,0,0.6937,0.6938,0.6939,0.6975,0.6975,0.6975,0.6975,0.7052,0.7054,0.7056,0,0,0,0,0,0,0,0,0,0,0,0,0,0.6745,0.6747,0.686,0.6861,0.6862,0.6937,0.6938,0.6939,0.6975,0.6975,0.6975,0.6975,0.7052,0.7054,0.7057,0,0,0,0,0,0,0,0,0,0,0,0,0,0.6806,0.6748,0.686,0.6889,0.6892,0.6937,0.6938,0.6939,0.6975,0.6975,0.6975,0.6975,0.7051,0.7054,0.7057,0.7078,0,0,0.7067,0.7068,0,0,0,0,0,0,0,0,0.6802,0.681,0.6884,0.6887,0.6891,0.6946,0.6926,0.6986,0.6975,0.6944,0.6975,0.6975,0.7017,0.7023,0.7037,0.7081,0.7085,0.7067,0.7069,0.707,0.7071,0,0,0,0,0,0,0,0.6798,0.6807,0.689,0.6885,0.6889,0.6899,0.6907,0.6937,0.698,0.6946,0.6949,0.6958,0.7019,0.7034,0.704,0.7086,0.7067,0.707,0.7072,0.7073,0.7154,0.7154,0,0,0,0,0,0,0.6789,0.6803,0.6888,0.6893,0.6846,0.6901,0.691,0.6929,0.6979,0.6987,0.6958,0.6959,0.7029,0.7036,0.7042,0.7072,0.707,0.7073,0.7075,0.7153,0.7154,0.7154,0,0,0,0,0,0,0.6787,0.6796,0.6885,0.6849,0.6861,0.6903,0.6923,0.693,0.6946,0.6988,0.6996,0.6966,0.7029,0.7038,0.7069,0.7075,0.7074,0.7077,0.7153,0.7153,0.7154,0.7129,0,0,0,0,0,0,0.6783,0.6795,0.6803,0.6849,0.6863,0.691,0.6923,0.6932,0.6951,0.6954,0.6998,0.7005,0.703,0.7065,0.7073,0.7079,0.708,0.7153,0.7153,0.7154,0.713,0.7129,0.7128,0,0,0,0,0,0.6779,0.6792,0.6803,0.6813,0.6873,0.691,0.6918,0.6947,0.6951,0.696,0.6988,0.7003,0.7073,0.7067,0.7077,0.7084,0.7152,0.7153,0.7154,0.713,0.7129,0.7128,0,0,0,0,0,0,0.6744,0.6798,0.6811,0.684,0.687,0.6916,0.6928,0.6945,0.6974,0.6975,0.701,0.7019,0.7048,0.707,0.7062,0.7109,0.7114,0.7117,0.7093,0.7093,0.7092,0.7086,0.7082,0,0,0,0,0,0.674,0.6766,0.6812,0.6832,0.6847,0.6885,0.6902,0.6922,0.6955,0.6968,0.6998,0.7029,0.7059,0.7077,0.7106,0.7134,0.7145,0.7144,0.7143,0.7142,0.7143,0.7162,0.7163,0.7156,0.7156,0.7156,0,0,0.6732,0.6765,0.6778,0.6827,0.6853,0.6879,0.6895,0.6922,0.6942,0.6972,0.7004,0.7027,0.7065,0.7095,0.711,0.7114,0.7148,0.7143,0.7141,0.7144,0.7163,0.7163,0.7164,0.7156,0.7156,0.7156,0,0,0.673,0.6756,0.6778,0.6804,0.6844,0.687,0.6875,0.6919,0.6937,0.697,0.6993,0.7018,0.7067,0.7093,0.7113,0.7125,0.7141,0.7133,0.7128,0.7146,0.7147,0.7147,0.7153,0.7154,0.7135,0.7135,0.7135,0,0.6713,0.6754,0.6786,0.6813,0.6834,0.6864,0.6886,0.691,0.6957,0.6972,0.6976,0.704,0.7067,0.7105,0.7108,0.7123,0.7131,0.7128,0.7144,0.7145,0.7146,0.7152,0.7153,0.7134,0.7134,0.7134,0.7134,0,0.6733,0.6761,0.6774,0.682,0.6843,0.6867,0.6904,0.6923,0.6942,0.6968,0.7002,0.7036,0.7074,0.7085,0.7102,0.7126,0.7128,0.7137,0.7144,0.7145,0.7151,0.7153,0.7132,0.7133,0.7133,0.7133,0,0,0.6709,0.6776,0.678,0.6802,0.685,0.6873,0.6899,0.6937,0.6954,0.6986,0.701,0.7053,0.7063,0.7086,0.7107,0.7123,0.7132,0.7131,0.7133,0.7131,0.7162,0.7154,0.7156,0.7143,0.7144,0.7144,0.7159,0,0.6714,0.6763,0.6795,0.6831,0.6859,0.6889,0.6913,0.6945,0.697,0.6998,0.7026,0.7056,0.7066,0.7081,0.7097,0.7127,0.7139,0.7127,0.7166,0.7167,0.7156,0.7159,0.715,0.7162,0.7161,0.7162,0.7162,0,0.6726,0.6759,0.6799,0.6847,0.6859,0.688,0.6919,0.6944,0.6982,0.7,0.7027,0.7049,0.708,0.7085,0.7128,0.7119,0.7137,0.7155,0.7156,0.716,0.7164,0.7164,0.7167,0.7169,0.7166,0.7165,0.7165,0,0.6706,0.676,0.6792,0.681,0.6866,0.688,0.6904,0.6942,0.6964,0.6998,0.7013,0.705,0.707,0.7099,0.7131,0.7131,0.7172,0.7178,0.7187,0.7187,0.7194,0.7193,0.72,0.7205,0.7205,0.7205,0.7205,0,0.6708,0.6731,0.6784,0.6803,0.6831,0.6868,0.6895,0.6921,0.6956,0.6981,0.701,0.7033,0.7075,0.7104,0.713,0.7162,0.7171,0.7186,0.7193,0.7184,0.7182,0.7196,0.7196,0.7206,0.7206,0.7206,0.7205,0,0.6689,0.6725,0.6762,0.6813,0.6827,0.6845,0.6889,0.691,0.6938,0.697,0.698,0.7024,0.706,0.7096,0.7143,0.7161,0.7193,0.7202,0.7181,0.7184,0.7192,0.7191,0.7208,0.7213,0.7214,0.7214,0.7214,0,0.6688,0.6707,0.6761,0.6781,0.6805,0.6836,0.6859,0.6897,0.692,0.6967,0.6982,0.7021,0.7053,0.7109,0.7146,0.7183,0.7193,0.7197,0.7199,0.719,0.7194,0.7193,0.7196,0.7195,0.7195,0.7195,0.7195,0,0.6683,0.6701,0.6733,0.6773,0.68,0.6833,0.6866,0.6881,0.6926,0.695,0.6988,0.7014,0.7064,0.7102,0.7145,0.717,0.719,0.7194,0.7199,0.7189,0.7177,0.7185,0.7178,0.7193,0.7194,0.7194,0.7194,0.7194,0.6674,0.6693,0.6735,0.6771,0.6801,0.6832,0.6855,0.6887,0.692,0.6964,0.6985,0.7023,0.7064,0.7123,0.7148,0.7179,0.7184,0.719,0.7192,0.7193,0.7191,0.7172,0.7187,0.7187,0.7187,0.7187,0.7187,0,0.6671,0.67,0.6733,0.678,0.6809,0.6827,0.6866,0.6889,0.6923,0.6959,0.6992,0.7037,0.7075,0.7115,0.7156,0.7173,0.7184,0.7183,0.7182,0.7187,0.7184,0.7176,0.7174,0.7174,0.7174,0.7174,0.7174,0.7174,0.6672,0.6707,0.673,0.678,0.681,0.6848,0.6869,0.6899,0.6929,0.6978,0.701,0.7037,0.7076,0.712,0.7156,0.7167,0.7181,0.7177,0.7191,0.7186,0.7187,0.7188,0.7182,0.718,0.718,0.7192,0.7193,0.7193]}]]